Total_Precipitation_Accumulation
1.21 1.17 1.29 1.54 1.64 1.69 1.90 1.97 1.78 1.68 1.66 1.59 1.49 1.38 1.31 1.23 1.22 1.21 1.58 2.00 2.44 2.98 3.43 3.37 2.94 2.42 2.27 2.42 2.40 2.31 2.26 2.48 3.06 3.19 3.09 3.02 2.89 2.90 2.67 2.32 2.05 1.94 1.88
1.23 1.27 1.23 1.39 1.67 1.75 1.81 1.85 1.78 1.69 1.64 1.63 1.55 1.51 1.47 1.27 1.36 1.36 1.45 1.55 1.77 2.18 2.89 3.33 3.11 2.65 2.49 2.50 2.41 2.36 2.28 2.34 2.96 3.24 3.27 3.18 3.05 3.07 2.69 2.33 2.23 2.09 2.07
1.24 1.24 1.16 1.27 1.52 1.74 1.80 1.81 1.77 1.77 1.57 1.47 1.54 1.58 1.55 1.43 1.47 1.51 1.49 1.48 1.41 1.65 2.24 2.90 3.06 2.89 2.81 2.85 2.64 2.54 2.50 2.60 2.77 3.08 3.24 3.26 3.16 3.01 2.64 2.31 2.10 2.13 2.18
1.22 1.32 1.25 1.22 1.42 1.67 1.92 2.07 1.96 1.89 1.74 1.60 1.63 1.64 1.55 1.59 1.57 1.56 1.52 1.53 1.54 1.43 1.60 1.92 2.33 2.77 2.95 3.12 2.97 2.84 2.59 2.37 2.36 2.67 2.99 3.20 3.25 3.02 2.90 2.58 2.26 2.23 2.38
1.16 1.38 1.49 1.43 1.48 1.70 1.82 1.90 1.96 1.85 1.80 1.70 1.56 1.53 1.50 1.60 1.66 1.50 1.50 1.50 1.57 1.53 1.47 1.34 1.50 1.88 2.42 3.12 3.31 2.99 2.78 2.48 2.24 2.34 2.61 2.94 3.15 3.04 2.93 2.71 2.42 2.24 2.30
1.38 1.51 1.63 1.66 1.68 1.80 1.83 2.00 2.23 2.03 1.82 1.78 1.60 1.50 1.46 1.53 1.57 1.56 1.62 1.61 1.61 1.58 1.55 1.39 1.33 1.21 1.55 2.27 2.89 2.84 2.89 2.75 2.40 2.30 2.42 2.54 2.76 2.92 2.70 2.63 2.61 2.39 2.24
1.65 1.75 1.84 1.91 1.87 1.82 1.91 2.11 2.53 2.42 2.07 1.85 1.84 1.71 1.57 1.54 1.59 1.55 1.68 1.77 1.67 1.63 1.65 1.57 1.41 1.26 1.16 1.34 1.91 2.50 2.75 2.93 2.75 2.52 2.45 2.54 2.60 2.82 2.71 2.55 2.71 2.68 2.51
1.78 1.83 2.02 2.13 2.09 2.09 2.19 2.26 2.55 2.74 2.47 2.25 2.24 2.41 2.17 1.95 1.63 1.38 1.43 1.54 1.60 1.64 1.63 1.64 1.52 1.36 1.31 1.26 1.23 1.75 2.23 2.60 2.84 2.70 2.53 2.54 2.62 2.77 2.87 2.78 2.76 2.90 2.82
1.96 1.91 1.98 2.17 2.19 2.19 2.27 2.48 2.80 3.14 3.11 2.80 2.54 2.72 2.47 2.18 2.09 1.59 1.29 1.35 1.49 1.61 1.63 1.70 1.64 1.50 1.46 1.49 1.32 1.24 1.48 1.91 2.53 2.81 2.78 2.68 2.67 2.72 2.82 2.88 3.05 2.99 2.99
1.88 1.87 1.95 2.12 2.29 2.43 2.57 2.64 2.62 3.03 3.38 3.18 2.96 2.58 2.26 2.11 2.27 2.13 1.65 1.35 1.40 1.45 1.52 1.52 1.63 1.69 1.64 1.58 1.47 1.13 1.06 1.35 2.13 2.89 3.12 2.90 2.69 2.64 2.84 3.00 3.06 2.85 2.77
2.00 1.90 1.91 1.95 2.00 2.12 2.29 2.44 2.50 2.75 3.01 3.19 3.17 2.94 2.63 2.42 1.98 1.99 2.07 1.81 1.54 1.32 1.31 1.43 1.61 1.68 1.67 1.56 1.57 1.24 1.03 0.99 1.39 2.19 2.84 3.02 2.92 2.85 3.03 3.10 2.90 2.69 2.58
2.01 1.86 1.79 1.85 1.87 1.88 2.03 2.16 2.28 2.56 2.77 2.93 3.00 2.92 2.81 2.72 2.39 2.11 1.95 1.91 1.77 1.53 1.37 1.37 1.44 1.52 1.60 1.54 1.41 1.40 1.18 0.96 0.98 1.27 1.81 2.44 2.74 2.85 2.99 3.02 2.91 2.72 2.76
1.59 1.56 1.48 1.50 1.63 1.71 1.88 1.97 1.93 2.01 2.19 2.42 2.60 2.66 2.70 2.60 2.52 2.42 2.27 2.05 1.81 1.49 1.46 1.38 1.35 1.44 1.46 1.57 1.53 1.66 1.29 1.05 0.95 0.97 1.19 1.54 1.90 2.22 2.60 2.78 2.90 2.95 3.05
1.23 1.19 1.20 1.19 1.24 1.33 1.55 1.78 1.80 1.81 1.87 1.97 2.05 2.33 2.52 2.49 2.50 2.29 2.18 2.22 1.98 1.66 1.47 1.27 1.17 1.22 1.29 1.42 1.69 1.79 1.29 1.17 0.98 1.00 1.09 1.11 1.28 1.46 1.82 2.25 2.47 2.66 2.82
0.95 0.93 0.98 1.07 1.14 1.13 1.23 1.39 1.60 1.66 1.74 1.81 1.82 1.99 2.14 2.24 2.24 2.07 2.10 2.19 2.09 1.79 1.58 1.40 1.31 1.24 1.22 1.27 1.57 1.47 1.30 1.27 1.14 1.09 1.05 1.03 1.05 1.11 1.26 1.50 1.74 1.87 1.98
0.84 0.85 0.86 0.91 0.99 1.03 1.11 1.22 1.28 1.39 1.49 1.65 1.82 1.95 1.97 2.01 2.09 1.99 1.98 2.09 2.08 1.90 1.67 1.44 1.28 1.22 1.27 1.21 1.40 1.32 1.40 1.49 1.18 1.04 0.99 1.01 0.98 0.93 0.89 0.97 1.12 1.25 1.32
0.70 0.70 0.76 0.86 0.89 0.92 0.95 0.96 1.00 1.06 1.14 1.26 1.32 1.48 1.69 1.88 1.98 1.98 2.02 2.07 2.10 1.97 1.71 1.56 1.31 1.28 1.40 1.34 1.33 1.29 1.38 1.43 1.21 1.10 0.96 0.91 0.91 0.87 0.85 0.83 0.85 0.92 1.01
0.67 0.68 0.74 0.80 0.82 0.88 0.90 0.88 0.88 0.93 1.04 1.14 1.17 1.21 1.34 1.60 1.75 1.85 1.94 1.96 2.03 1.99 1.81 1.76 1.67 1.44 1.36 1.34 1.45 1.53 1.47 1.44 1.38 1.38 1.24 1.03 0.95 0.92 0.87 0.83 0.80 0.78 0.80
0.84 0.86 0.85 0.88 0.84 0.87 0.89 0.87 0.89 0.92 0.95 1.02 1.05 1.07 1.17 1.30 1.46 1.55 1.65 1.76 1.85 1.96 1.93 1.74 1.78 1.72 1.49 1.43 1.45 1.54 1.60 1.70 1.57 1.52 1.57 1.39 1.18 1.08 1.00 0.92 0.85 0.82 0.81
0.73 0.76 0.84 0.91 0.96 1.01 0.99 0.94 0.94 0.95 0.90 0.92 0.99 1.05 1.08 1.10 1.29 1.51 1.61 1.70 1.75 1.85 1.96 1.87 1.80 1.77 1.62 1.54 1.52 1.56 1.70 1.81 1.81 1.58 1.48 1.42 1.36 1.26 1.14 1.05 0.95 0.91 0.90
0.61 0.61 0.70 0.79 0.90 0.99 1.03 1.03 0.90 0.80 0.81 0.87 0.87 0.88 0.95 1.04 1.14 1.35 1.46 1.68 1.73 1.87 1.93 1.96 1.86 1.70 1.57 1.53 1.51 1.50 1.61 1.82 1.89 1.82 1.68 1.47 1.35 1.20 1.11 1.08 1.07 1.05 1.00
0.58 0.57 0.61 0.59 0.63 0.68 0.88 0.88 0.77 0.65 0.68 0.78 0.85 0.86 0.86 0.91 0.97 1.03 1.08 1.31 1.51 1.66 1.78 1.79 1.81 1.67 1.53 1.47 1.58 1.62 1.61 1.67 1.81 1.80 1.61 1.65 1.59 1.39 1.24 1.11 1.19 1.25 1.24
0.59 0.57 0.51 0.47 0.49 0.56 0.62 0.60 0.66 0.65 0.66 0.71 0.79 0.87 0.92 0.90 0.96 1.04 1.05 1.13 1.22 1.28 1.43 1.56 1.59 1.53 1.51 1.45 1.55 1.62 1.61 1.53 1.47 1.58 1.53 1.60 1.63 1.49 1.33 1.24 1.27 1.22 1.21
0.54 0.59 0.51 0.47 0.51 0.52 0.56 0.61 0.64 0.63 0.74 0.81 0.81 0.80 0.93 0.98 1.03 1.18 1.18 1.26 1.20 1.11 1.12 1.20 1.34 1.39 1.34 1.44 1.55 1.74 1.84 1.69 1.55 1.59 1.56 1.48 1.42 1.37 1.27 1.26 1.29 1.16 1.11
0.50 0.46 0.49 0.62 0.61 0.61 0.70 0.65 0.57 0.63 0.76 0.84 0.79 0.81 0.92 1.00 1.18 1.29 1.31 1.32 1.22 1.15 1.23 1.32 1.40 1.47 1.47 1.53 1.62 1.71 1.78 1.79 1.70 1.65 1.52 1.39 1.28 1.28 1.29 1.23 1.20 1.23 1.16
0.43 0.45 0.49 0.62 0.66 0.70 0.71 0.58 0.55 0.65 0.76 0.85 0.84 0.83 1.04 1.04 1.14 1.19 1.24 1.36 1.36 1.25 1.23 1.23 1.27 1.33 1.32 1.40 1.65 1.69 1.82 1.90 1.75 1.66 1.51 1.38 1.35 1.46 1.54 1.35 1.18 1.15 1.13